Starlink 31541

operational
NORAD ID: 59633 Int'l Des: 2024-082 Owner: SPXS Country: US Constellation: starlink
LEOCIRCULAR

关于 Starlink 31541

正在加载描述...

实时位置

正在加载3D地球...

即将过境

高度历史

Altitude vs Time

uPlot chart will show altitude changes over time

两行轨道根数

1 59633U 24082C 25258.12409714 -.00000312 00000-0 -18103-5 0 9998
2 59633 43.0032 44.1887 0000797 270.2930 89.7831 15.27579937 78239
Epoch: Sep 15, 2025 • Age: 33 hours

当前状态

高度 487.0 km
速度 7.62 km/s
星下点 -19.47°S, 158.46°W
发射日期 May 3, 2024
运行时间 1.3 years
类型 internet

技术详情

分类 Payload
质量 730.00 kg
干质量 700.00 kg
总质量 730.00 kg
长度 0.30 m
直径 4.10 m
跨度 29.00 m
形状 Box + pan
制造商 SPXS
平台类型 Starlink V2M
阶段状态 In Orbit
所有者/国家 SPXS/US

大型星座

Loading constellations...